Find Yaogan Weixing 2

NORAD ID: 31490 Int'l Des: 2007-019 Owner: ZZB Country: CN Constellation: yaogan operational
LEOCIRCULARRETROGRADESSO

实时位置

正在加载3D地球...

关于 Yaogan Weixing 2

正在加载描述...

即将过境

Passes for default location (London). Set your location on the main map for personalized predictions.

高度历史

Loading altitude history...

两行轨道根数

1 31490U 07019A 26107.14636166 .00000095 00000-0 19016-4 0 9998
2 31490 98.2728 325.6996 0021841 109.6692 250.6880 14.82577051 18574
Epoch: Apr 17, 2026 • Age: 16 hours

当前状态

高度 620.9 km
速度 7.56 km/s
星下点 64.71°N, 162.53°E
发射日期 May 25, 2007
运行时间 18.8 years
类型 military

技术详情

分类 Payload
质量 700.00 kg
干质量 700.00 kg
总质量 700.00 kg
长度 2.00 m
直径 1.50 m
跨度 4.00 m
形状 Box + 2 Pan
制造商 DFHZ
平台类型 CAST-2000
阶段状态 In Orbit
所有者/国家 ZZB/CN

Most Searched